G8PZT Weather Reports


time (UTC)temp
C
wind
direction
speed
KPH
gust
KPH
rain 1hr
cm
rain 24hr
cm
rain mn
cm
humidity
%
barometer
mb
20260507162157 16 0 20.9 32.2 0.00 0.00 0.00 22
20260507162002 16 0 32.2 32.2 0.00 0.00 0.00 22
20260507161157 16 0 32.2 32.2 0.00 0.00 0.00 22
20260507160157 16 0 3.2 3.2 0.00 0.00 0.00 22
20260507155157 16 0 6.4 32.2 0.00 0.00 0.00 22
20260507154157 16 0 6.4 35.4 0.00 0.00 0.00 22
20260507154002 16 0 27.4 35.4 0.00 0.00 0.00 22
20260507153157 16 0 3.2 12.9 0.00 0.00 0.00 22
20260507152002 16 0 6.4 38.6 0.00 0.00 0.00 22
20260507151156 16 0 20.9 27.4 0.00 0.00 0.00 22
20260507150156 16 0 38.6 38.6 0.00 0.00 0.00 22
20260507150002 17 0 0.0 12.9 0.00 0.00 0.00 22
20260507145156 17 0 0.0 6.4 0.00 0.00 0.00 22
20260507144156 17 0 12.9 24.1 0.00 0.00 0.00 22
20260507143157 17 0 24.1 24.1 0.00 0.00 0.00 22
20260507142157 17 0 0.0 32.2 0.00 0.00 0.00 22
20260507142002 16 0 32.2 41.8 0.00 0.00 0.00 22
20260507141157 17 0 24.1 32.2 0.00 0.00 0.00 22
20260507140157 18 0 17.7 24.1 0.00 0.00 0.00 21
20260507140002 18 0 17.7 24.1 0.00 0.00 0.00 21
20260507135157 17 0 32.2 41.8 0.00 0.00 0.00 22
20260507134157 18 0 9.7 12.9 0.00 0.00 0.00 21
20260507134002 17 0 3.2 12.9 0.00 0.00 0.00 21
20260507133157 17 0 3.2 3.2 0.00 0.00 0.00 22
20260507132157 16 0 0.0 17.7 0.00 0.00 0.00 22
20260507131157 16 0 20.9 35.4 0.00 0.00 0.00 22
20260507130156 16 0 0.0 38.6 0.00 0.00 0.00 22
20260507130002 16 0 27.4 38.6 0.00 0.00 0.00 22
20260507125156 17 0 24.1 27.4 0.00 0.00 0.00 22
20260507124156 16 0 0.0 27.4 0.00 0.00 0.00 22
20260507124003 16 0 27.4 27.4 0.00 0.00 0.00 22
20260507123156 16 0 3.2 6.4 0.00 0.00 0.00 22
20260507122156 16 0 0.0 9.7 0.00 0.00 0.00 22
20260507121157 17 0 0.0 6.4 0.00 0.00 0.00 22
20260507120157 17 0 27.4 27.4 0.00 0.00 0.00 22
20260507115157 16 0 0.0 3.2 0.00 0.00 0.00 22
20260507114157 15 0 0.0 0.0 0.00 0.00 0.00 23
20260507114003 15 0 0.0 0.0 0.00 0.00 0.00 23
20260507113157 14 0 0.0 17.7 0.00 0.00 0.00 23
20260507112157 13 0 0.0 17.7 0.00 0.00 0.00 25
20260507112002 13 0 17.7 24.1 0.00 0.00 0.00 25
20260507111157 13 0 0.0 12.9 0.00 0.00 0.00 29
20260507110156 13 0 3.2 20.9 0.00 0.00 0.00 31
20260507110002 12 0 20.9 20.9 0.00 0.00 0.00 31
20260507104156 11 0 27.4 38.6 0.00 0.00 0.00 36
20260507104003 11 0 3.2 9.7 0.00 0.00 0.00 36
20260507103157 11 0 0.0 0.0 0.00 0.00 0.00 39
20260507102156 10 0 9.7 20.9 0.00 0.00 0.00 40
20260507102002 10 0 20.9 20.9 0.00 0.00 0.00 39
20260507101157 10 0 0.0 17.7 0.00 0.00 0.00 40
20260507100157 10 0 0.0 3.2 0.00 0.00 0.00 42
20260507100002 10 0 0.0 17.7 0.00 0.00 0.00 43
20260507095157 10 0 0.0 3.2 0.00 0.00 0.00 43
20260507094157 10 0 3.2 3.2 0.00 0.00 0.00 46
20260507094003 10 0 0.0 20.9 0.00 0.00 0.00 46
20260507093157 9 0 0.0 38.6 0.00 0.00 0.00 46
20260507092157 9 0 0.0 3.2 0.00 0.00 0.00 47
20260507091157 8 0 3.2 9.7 0.00 0.00 0.00 48
20260507090156 8 0 0.0 0.0 0.00 0.00 0.00 49
20260507090002 8 0 0.0 6.4 0.00 0.00 0.00 51
20260507085156 8 0 6.4 6.4 0.00 0.00 0.00 52
20260507084156 8 0 0.0 27.4 0.00 0.00 0.00 52
20260507084002 8 0 0.0 27.4 0.00 0.00 0.00 52
20260507083156 7 0 0.0 20.9 0.00 0.00 0.00 53
20260507082156 7 0 0.0 0.0 0.00 0.00 0.00 54
20260507082002 7 0 0.0 0.0 0.00 0.00 0.00 54
20260507081156 7 0 0.0 0.0 0.00 0.00 0.00 55
20260507080157 7 0 9.7 9.7 0.00 0.00 0.00 55
20260507080002 7 0 0.0 0.0 0.00 0.00 0.00 55
20260507075157 7 0 0.0 0.0 0.00 0.00 0.00 56
20260507074157 7 0 0.0 0.0 0.00 0.00 0.00 58
20260507074003 7 0 0.0 0.0 0.00 0.00 0.00 58
20260507073157 7 0 0.0 0.0 0.00 0.00 0.00 58
20260507072157 7 0 6.4 6.4 0.00 0.00 0.00 59
20260507072001 7 0 0.0 6.4 0.00 0.00 0.00 59
20260507071157 7 0 0.0 0.0 0.00 0.00 0.00 60
20260507070157 6 0 0.0 3.2 0.00 0.00 0.00 62
20260507070002 6 0 0.0 3.2 0.00 0.00 0.00 62
20260507065156 6 0 0.0 0.0 0.00 0.00 0.00 63
20260507064156 6 0 0.0 0.0 0.00 0.00 0.00 64
20260507064002 6 0 0.0 0.0 0.00 0.00 0.00 64
20260507063156 6 0 0.0 0.0 0.00 0.00 0.00 66
20260507062156 6 0 0.0 0.0 0.00 0.00 0.00 67
20260507062002 6 0 0.0 0.0 0.00 0.00 0.00 67
20260507061156 6 0 0.0 0.0 0.00 0.00 0.00 69
20260507060157 6 0 0.0 0.0 0.00 0.00 0.00 70
20260507060002 6 0 0.0 0.0 0.00 0.00 0.00 70
20260507055157 5 0 0.0 0.0 0.00 0.00 0.00 71
20260507054157 5 0 0.0 0.0 0.00 0.00 0.00 71
20260507054002 5 0 0.0 0.0 0.00 0.00 0.00 71
20260507053157 5 0 0.0 0.0 0.00 0.00 0.00 73
20260507052157 5 0 0.0 0.0 0.00 0.00 0.00 73
20260507052003 5 0 0.0 0.0 0.00 0.00 0.00 73
20260507051156 5 0 0.0 0.0 0.00 0.00 0.00 73
20260507050156 5 0 0.0 0.0 0.00 0.00 0.00 73
20260507050001 5 0 0.0 0.0 0.00 0.00 0.00 73
20260507045156 5 0 0.0 0.0 0.00 0.00 0.00 73
20260507044155 5 0 0.0 0.0 0.00 0.00 0.00 72
20260507044002 5 0 0.0 0.0 0.00 0.00 0.00 72
20260507043155 5 0 0.0 0.0 0.00 0.00 0.00 72
20260507042155 4 0 0.0 0.0 0.00 0.00 0.00 71
20260507042002 4 0 0.0 0.0 0.00 0.00 0.00 71
20260507041155 4 0 0.0 0.0 0.00 0.00 0.00 71
20260507040155 4 0 0.0 0.0 0.00 0.00 0.00 71
20260507040002 4 0 0.0 0.0 0.00 0.00 0.00 70
20260507035155 3 0 0.0 0.0 0.00 0.00 0.00 70
20260507034156 3 0 0.0 0.0 0.00 0.00 0.00 70
20260507034003 3 0 0.0 0.0 0.00 0.00 0.00 70
20260507033156 3 0 0.0 0.0 0.00 0.00 0.00 69
20260507032156 3 0 0.0 0.0 0.00 0.00 0.00 69
20260507032003 3 0 0.0 0.0 0.00 0.00 0.00 69
20260507031156 3 0 0.0 0.0 0.00 0.00 0.00 68
20260507030156 3 0 0.0 0.0 0.00 0.00 0.00 68
20260507030001 3 0 0.0 0.0 0.00 0.00 0.00 68
20260507025155 3 0 0.0 0.0 0.00 0.00 0.00 67
20260507024155 3 0 0.0 0.0 0.00 0.00 0.00 67
20260507024002 3 0 0.0 0.0 0.00 0.00 0.00 67
20260507023155 4 0 0.0 0.0 0.00 0.00 0.00 67
20260507022155 4 0 0.0 0.0 0.00 0.00 0.00 67
20260507022002 4 0 0.0 0.0 0.00 0.00 0.00 67
20260507021155 4 0 0.0 0.0 0.00 0.00 0.00 66
20260507020155 4 0 0.0 0.0 0.00 0.00 0.00 67
20260507020002 4 0 0.0 0.0 0.00 0.00 0.00 67
20260507015156 5 0 0.0 0.0 0.00 0.00 0.00 67
20260507014156 5 0 0.0 0.0 0.00 0.00 0.00 67
20260507014002 5 0 0.0 0.0 0.00 0.00 0.00 67
20260507013156 5 0 0.0 0.0 0.00 0.00 0.00 68
20260507012156 5 0 0.0 0.0 0.00 0.00 0.00 68
20260507012002 5 0 0.0 0.0 0.00 0.00 0.00 68
20260507011156 5 0 0.0 0.0 0.00 0.00 0.00 68
20260507010156 5 0 0.0 0.0 0.00 0.00 0.00 68
20260507010002 5 0 0.0 0.0 0.00 0.00 0.00 68
20260507005156 5 0 0.0 0.0 0.00 0.00 0.00 69
20260507004155 5 0 0.0 0.0 0.00 0.00 0.00 68
20260507004002 5 0 0.0 0.0 0.00 0.00 0.00 68
20260507003155 5 0 0.0 0.0 0.00 0.00 0.00 68
20260507002155 5 0 0.0 0.0 0.00 0.00 0.00 68
20260507002002 5 0 0.0 0.0 0.00 0.00 0.00 68
20260507001155 5 0 0.0 0.0 0.00 0.00 0.00 67
20260507000155 5 0 0.0 0.0 0.00 0.00 0.00 67
20260507000002 5 0 0.0 0.0 0.00 0.00 0.00 67
20260506235156 5 0 0.0 0.0 0.00 0.00 0.00 67
20260506234155 5 0 0.0 0.0 0.00 0.00 0.00 66
20260506234002 5 0 0.0 0.0 0.00 0.00 0.00 66
20260506233156 5 0 0.0 0.0 0.00 0.00 0.00 66
20260506232155 5 0 0.0 0.0 0.00 0.00 0.00 66
20260506232003 5 0 0.0 0.0 0.00 0.00 0.00 66
20260506231156 5 0 0.0 0.0 0.00 0.00 0.00 65
20260506230156 4 0 0.0 0.0 0.00 0.00 0.00 65
20260506225156 4 0 0.0 0.0 0.00 0.00 0.00 64
20260506224156 4 0 0.0 0.0 0.00 0.00 0.00 62
20260506224002 4 0 0.0 0.0 0.00 0.00 0.00 62
20260506223155 4 0 0.0 0.0 0.00 0.00 0.00 61
20260506222155 4 0 0.0 0.0 0.00 0.00 0.00 59
20260506221155 4 0 0.0 0.0 0.00 0.00 0.00 58
20260506220155 5 0 0.0 0.0 0.00 0.00 0.00 56
20260506220002 5 0 0.0 0.0 0.00 0.00 0.00 55
20260506215155 5 0 0.0 0.0 0.00 0.00 0.00 53
20260506214156 5 0 0.0 0.0 0.00 0.00 0.00 52
20260506214002 6 0 0.0 0.0 0.00 0.00 0.00 52
20260506213155 6 0 0.0 0.0 0.00 0.00 0.00 50
20260506212156 6 0 0.0 0.0 0.00 0.00 0.00 50
20260506212003 6 0 0.0 0.0 0.00 0.00 0.00 50
20260506211156 7 0 0.0 0.0 0.00 0.00 0.00 50
20260506210156 7 0 0.0 0.0 0.00 0.00 0.00 49
20260506210003 7 0 0.0 0.0 0.00 0.00 0.00 49
20260506205156 7 0 0.0 0.0 0.00 0.00 0.00 48
20260506204156 7 0 0.0 0.0 0.00 0.00 0.00 42
20260506204002 7 0 0.0 0.0 0.00 0.00 0.00 42
20260506203155 7 0 0.0 0.0 0.00 0.00 0.00 41
20260506202155 7 0 0.0 0.0 0.00 0.00 0.00 39
20260506202002 7 0 0.0 0.0 0.00 0.00 0.00 39
20260506201155 8 0 0.0 0.0 0.00 0.00 0.00 39
20260506200155 8 0 0.0 0.0 0.00 0.00 0.00 38
20260506200002 8 0 0.0 0.0 0.00 0.00 0.00 38
20260506195155 9 0 0.0 0.0 0.00 0.00 0.00 38
20260506194156 10 0 0.0 0.0 0.00 0.00 0.00 37
20260506194003 10 0 0.0 0.0 0.00 0.00 0.00 36
20260506193155 10 0 0.0 0.0 0.00 0.00 0.00 35
20260506192156 10 0 0.0 0.0 0.00 0.00 0.00 33
20260506192003 10 0 0.0 0.0 0.00 0.00 0.00 32
20260506191155 10 0 0.0 0.0 0.00 0.00 0.00 31
20260506190156 11 0 0.0 0.0 0.00 0.00 0.00 28
20260506190003 11 0 0.0 0.0 0.00 0.00 0.00 27
20260506185156 11 0 0.0 0.0 0.00 0.00 0.00 25
20260506184156 12 0 0.0 0.0 0.00 0.00 0.00 24
20260506184002 13 0 0.0 0.0 0.00 0.00 0.00 23
20260506183156 15 0 0.0 0.0 0.00 0.00 0.00 23
20260506182155 15 0 0.0 0.0 0.00 0.00 0.00 23
20260506182002 15 0 0.0 0.0 0.00 0.00 0.00 23
20260506181155 14 0 0.0 0.0 0.00 0.00 0.00 23
20260506180155 14 0 0.0 0.0 0.00 0.00 0.00 23
20260506180002 15 0 0.0 0.0 0.00 0.00 0.00 23
20260506175155 13 0 0.0 0.0 0.00 0.00 0.00 23
20260506174155 13 0 0.0 0.0 0.00 0.00 0.00 23
20260506174002 14 0 0.0 0.0 0.00 0.00 0.00 23
20260506173156 14 0 0.0 0.0 0.00 0.00 0.00 23
20260506172156 13 0 0.0 0.0 0.00 0.00 0.00 23
20260506172003 13 0 0.0 0.0 0.00 0.00 0.00 23
20260506171156 13 0 0.0 0.0 0.00 0.00 0.00 23
20260506170156 14 0 0.0 0.0 0.00 0.00 0.00 23
20260506170005 14 0 0.0 0.0 0.00 0.00 0.00 23
20260506165156 14 0 0.0 0.0 0.00 0.00 0.00 23
20260506164156 14 0 0.0 0.0 0.00 0.00 0.00 23
20260506164002 14 0 0.0 0.0 0.00 0.00 0.00 23
20260506163156 15 0 0.0 0.0 0.00 0.00 0.00 23